GFSSGP_850_thetae_015.txt.gz
Theta_e
328 331 339 339 341 336 336 336 334 331 331 329 327 327 325 324 324 325 326 326 325 325 328 330 327 319 314 313 317 320 316 316 319 319 322 321 318 315 317 315 314 309 312 323 326 329 325 316 317
333 337 336 337 338 338 337 334 332 331 330 327 326 325 325 325 322 322 323 326 326 326 329 327 327 317 314 313 315 315 315 316 319 320 323 325 325 318 322 322 320 316 313 325 326 328 329 319 319
334 334 335 339 338 337 335 333 331 331 328 327 327 325 324 325 323 322 325 326 325 325 324 324 322 317 314 314 314 315 316 317 319 319 321 324 324 325 325 323 323 322 324 324 325 327 328 326 321
333 334 334 334 335 335 334 332 330 329 328 326 326 326 325 325 324 324 325 324 323 322 322 322 320 318 315 315 315 317 318 319 320 319 318 320 320 321 325 325 325 324 324 325 326 326 329 329 322
332 332 335 336 336 334 333 331 329 328 328 326 325 326 325 326 325 324 324 323 322 322 322 322 322 318 315 315 315 319 317 317 316 317 319 319 321 324 323 323 325 326 325 323 324 324 326 329 328
331 331 334 335 333 334 333 329 328 327 327 326 325 325 325 327 325 324 323 323 322 322 323 322 322 321 318 314 314 315 315 316 315 317 319 321 321 320 320 320 323 325 326 323 323 320 321 328 329
332 333 335 334 333 333 332 329 328 327 327 327 325 325 325 326 324 324 323 322 322 321 322 322 322 322 321 322 322 319 316 318 320 320 320 320 320 320 322 321 321 325 325 324 323 318 316 323 329
330 333 334 333 333 333 332 330 329 327 328 325 324 324 324 326 325 323 322 322 322 322 321 322 321 321 324 326 326 325 323 321 320 318 317 317 319 320 321 322 321 323 324 324 321 316 311 316 326
330 331 332 331 331 332 331 331 330 327 326 325 324 324 324 325 323 322 322 322 322 322 322 321 321 325 328 327 326 325 326 324 322 322 322 319 323 324 324 324 324 324 324 320 324 322 317 309 318
330 331 330 329 329 330 330 330 329 329 327 326 324 324 323 323 322 323 323 322 322 322 323 320 323 328 328 326 326 326 325 325 325 321 321 321 324 324 323 324 324 324 324 323 323 323 321 311 326
330 330 328 327 326 328 329 328 328 328 327 326 325 323 324 323 323 323 323 322 323 323 321 322 327 329 328 327 326 325 325 325 324 323 323 321 324 323 323 323 323 322 324 324 324 323 322 322 326
330 329 327 325 325 329 328 328 327 326 326 325 323 322 324 323 323 324 323 323 323 323 321 326 328 329 329 327 326 326 326 325 326 324 324 322 324 322 322 323 323 323 324 325 326 326 324 323 327
330 329 327 325 326 328 327 327 327 326 324 324 323 322 322 323 324 324 323 324 324 322 324 327 328 329 328 327 326 326 325 326 326 325 325 325 323 323 324 323 322 321 323 324 325 326 324 325 330
328 329 327 326 327 328 326 327 325 326 324 323 324 323 323 323 324 324 324 324 325 321 326 327 328 328 327 326 327 326 325 326 326 325 324 322 324 321 320 321 321 322 324 327 326 328 326 327 327
328 328 327 327 327 328 326 327 327 325 325 324 324 324 323 323 324 324 325 325 324 322 326 327 326 327 327 326 328 326 326 327 327 326 326 326 326 322 322 320 321 323 323 325 325 326 327 327 327
328 328 329 328 328 327 326 328 329 326 325 325 325 325 324 324 324 323 324 325 324 323 324 326 327 327 327 328 328 327 327 326 325 326 326 326 326 324 324 323 320 322 324 326 326 328 328 326 329
329 329 328 329 329 328 327 328 328 326 325 325 325 325 325 324 324 324 324 326 325 323 324 326 328 328 327 329 329 328 328 327 323 323 321 322 323 325 324 324 323 322 321 323 326 326 327 329 330
330 330 329 329 330 330 328 328 329 327 326 325 325 326 326 325 324 324 325 325 324 323 324 327 327 329 324 330 329 329 327 325 324 324 322 321 324 325 325 323 324 323 323 322 326 326 327 328 329
329 330 330 330 330 329 329 329 329 327 326 326 325 326 326 326 324 325 325 326 325 323 324 328 327 328 329 330 330 329 328 327 328 324 324 323 324 327 324 325 325 324 324 324 325 327 328 327 329
330 330 329 330 330 329 330 329 328 327 326 326 326 326 327 327 325 325 326 326 326 324 323 327 328 329 331 328 329 329 330 328 325 325 326 326 326 326 323 327 327 327 324 325 326 327 328 328 326
330 330 329 330 330 330 329 329 328 328 327 325 325 326 327 327 326 325 326 327 326 324 324 326 329 331 332 330 330 328 329 327 327 326 326 326 326 327 327 327 326 328 326 324 325 326 327 328 325
330 329 329 329 330 330 328 329 328 328 327 326 326 326 327 328 327 326 326 327 326 324 325 327 330 331 332 327 330 330 329 328 326 325 326 326 326 326 327 329 328 327 325 326 325 326 327 328 327
329 328 328 328 329 329 328 329 328 327 326 326 326 326 328 328 327 326 326 327 325 323 325 327 329 330 332 331 330 331 328 327 327 325 324 326 326 326 327 327 329 327 325 326 326 326 327 328 329
329 328 327 328 328 330 328 329 328 327 326 325 326 327 329 328 327 326 326 326 324 323 325 327 329 328 331 331 329 330 328 327 326 325 325 327 326 326 327 328 327 328 327 327 326 326 327 329 330
328 328 329 330 331 330 328 328 328 327 325 325 327 328 331 328 327 326 326 325 323 323 324 327 328 327 329 330 329 329 330 328 325 325 324 325 327 329 326 327 328 328 327 326 326 327 327 328 330
328 328 328 330 331 331 329 329 328 327 325 325 328 331 331 328 326 326 326 325 323 324 323 325 326 326 328 328 329 328 330 328 327 324 325 326 327 327 327 327 328 328 328 327 325 325 329 331 330
328 328 327 329 329 329 330 330 328 326 325 327 330 330 330 327 326 326 326 325 322 323 323 325 325 326 326 327 328 327 330 329 326 324 326 325 328 328 327 327 324 326 328 327 326 327 330 330 331
327 327 328 328 330 332 330 329 328 326 326 330 332 331 329 326 326 326 326 325 322 323 325 325 325 324 325 326 326 326 329 331 326 325 326 325 324 326 326 328 328 327 328 328 329 329 329 329 329
326 327 328 329 329 330 331 330 329 328 327 328 332 331 328 326 326 326 326 325 322 322 324 326 326 323 325 325 326 325 327 328 327 328 324 327 325 325 325 325 326 328 328 328 329 329 328 329 328
327 327 329 329 330 329 330 330 328 327 327 328 331 331 328 326 326 326 326 325 322 323 324 325 326 322 322 324 325 324 326 328 329 330 328 327 327 326 326 327 327 328 328 328 328 327 327 327 327

GFSSGP_850_thetae_021.txt.gz
Theta_e
329 329 337 337 335 336 338 337 334 328 328 328 327 326 322 322 323 330 330 327 324 326 328 327 327 326 322 317 315 312 313 317 316 318 317 324 319 318 320 318 318 321 321 316 313 309 326 319 315
329 331 334 338 337 340 338 334 334 328 328 328 327 326 324 323 324 327 326 325 325 326 326 326 324 322 322 321 319 314 312 319 324 319 320 319 318 320 319 322 324 324 324 322 320 313 314 325 322
330 335 336 332 335 338 337 335 333 328 328 328 327 326 326 324 325 326 326 323 324 324 324 326 325 323 322 320 319 316 316 320 320 321 319 319 319 321 321 319 319 323 325 324 325 326 318 320 326
333 336 337 331 332 332 334 333 329 328 328 328 326 325 326 325 323 323 324 318 324 324 326 326 323 321 321 321 320 315 314 317 318 322 320 320 319 320 319 321 321 320 321 326 328 327 327 317 324
333 334 330 333 333 334 333 333 332 326 327 326 326 326 325 324 324 323 318 320 323 323 323 323 323 321 318 319 318 318 316 314 316 319 322 321 320 320 320 317 319 320 322 324 325 326 326 322 323
333 331 329 332 331 331 331 332 332 328 328 325 325 327 325 324 323 322 320 321 322 323 323 323 321 319 321 320 322 323 325 325 324 321 317 315 316 317 319 320 321 321 320 324 325 327 326 324 322
330 329 330 331 332 331 332 332 331 330 328 325 326 326 326 325 325 324 324 323 323 322 322 322 323 323 322 322 323 327 327 326 324 322 322 321 321 320 318 317 320 324 324 320 324 325 327 322 322
331 328 330 330 330 330 330 332 332 330 327 327 327 324 327 326 325 323 323 322 322 323 323 323 323 322 322 323 322 326 327 326 326 325 323 323 321 318 317 317 319 320 322 322 324 324 326 323 320
332 328 330 330 330 329 328 326 328 329 329 329 327 325 326 326 325 324 323 323 323 323 323 323 323 322 321 321 323 327 326 326 327 326 324 322 322 318 318 321 323 323 323 321 322 324 326 323 315
330 327 330 329 329 328 327 326 327 328 327 329 325 325 326 326 325 323 323 323 323 324 323 323 323 321 321 318 326 328 327 326 325 324 325 322 322 318 320 322 322 324 324 324 324 324 325 322 316
329 328 328 328 330 330 327 325 326 327 327 327 325 325 325 325 323 323 323 323 324 324 324 323 323 322 320 321 324 324 325 327 326 327 325 322 322 320 323 322 322 322 322 322 324 324 323 314 311
329 328 329 329 329 330 327 328 326 327 327 326 325 325 325 324 323 323 323 324 323 324 324 324 323 325 321 324 323 321 324 327 327 325 324 323 323 321 322 322 322 322 322 322 322 324 318 322 316
330 328 329 330 330 329 329 327 326 327 327 326 324 324 324 325 324 323 324 324 324 325 325 324 323 323 322 324 326 326 326 325 324 324 324 325 325 323 322 321 320 321 322 323 322 324 320 323 322
330 329 329 330 330 329 328 327 326 327 327 326 326 324 323 323 325 324 324 324 325 325 325 324 325 323 327 327 328 327 327 326 324 324 324 326 325 325 322 322 321 321 322 323 323 324 323 324 319
326 326 327 328 328 326 328 326 325 328 327 326 326 325 323 324 323 323 324 324 325 325 325 323 324 327 328 327 328 325 328 328 326 326 324 327 326 325 322 323 323 322 322 322 322 324 325 323 323
323 324 327 326 326 327 326 326 325 328 327 326 327 326 325 325 324 323 324 325 325 326 326 324 323 324 327 329 326 328 328 327 326 326 325 324 325 323 323 323 324 322 322 321 322 324 325 323 324
322 324 325 326 327 327 326 327 326 327 327 327 327 326 326 326 325 324 325 325 325 326 325 323 323 326 329 326 329 329 328 327 326 327 326 325 324 322 322 323 323 322 322 321 323 325 325 324 326
322 324 326 327 327 326 327 326 327 328 327 327 327 328 328 325 325 325 325 325 325 326 325 323 321 327 328 327 328 329 329 328 326 325 326 325 324 322 323 322 324 321 322 323 324 325 325 326 324
323 325 326 327 327 326 329 329 330 329 329 328 329 328 328 325 325 325 325 325 325 327 326 322 327 328 328 329 327 326 327 327 327 326 326 326 325 322 324 324 324 323 322 323 324 325 325 325 324
323 323 324 326 327 329 329 329 329 328 327 328 328 328 328 328 325 325 325 325 326 326 325 324 327 330 330 329 330 329 328 328 326 326 326 326 325 324 325 325 324 323 321 324 325 325 321 325 326
325 324 324 326 327 328 328 329 329 329 328 329 328 328 328 327 326 325 325 326 327 327 326 322 329 328 333 330 327 328 328 326 326 325 326 326 326 326 325 324 324 323 324 320 324 325 324 325 327
324 325 325 327 327 327 328 327 328 327 326 326 327 326 328 326 326 326 326 326 327 327 326 326 328 330 332 330 328 327 327 327 326 326 326 326 325 325 326 325 324 324 324 322 323 324 324 325 327
325 326 326 327 327 327 327 325 325 327 327 326 325 327 328 327 327 326 326 327 327 328 325 326 329 330 331 330 329 327 329 328 327 325 325 326 325 324 325 325 323 323 324 324 324 325 325 327 326
325 325 325 326 327 329 327 327 326 327 328 327 327 330 329 328 327 327 327 327 328 327 324 325 330 329 331 330 329 328 329 325 325 326 327 327 326 326 327 326 325 324 324 325 326 326 325 326 324
324 323 326 327 328 327 327 326 324 326 326 325 326 330 329 329 328 327 327 328 328 326 324 327 330 329 330 330 329 328 325 325 325 327 328 327 327 326 327 326 326 324 324 325 325 325 325 324 323
319 324 325 328 329 327 326 329 328 327 326 326 331 330 330 329 328 327 328 328 328 325 324 326 329 329 329 329 328 327 324 324 325 327 328 326 328 327 327 327 326 325 325 325 325 325 325 324 324
322 325 324 327 328 327 327 330 328 326 324 325 331 330 329 329 328 327 328 328 327 325 324 326 328 328 329 328 327 328 326 325 325 324 326 327 327 327 327 327 326 327 326 326 325 325 326 326 326
321 324 327 325 327 328 327 329 331 326 324 325 329 331 330 328 328 328 328 327 325 324 324 325 326 327 327 328 328 328 329 327 327 326 325 326 326 325 327 327 326 326 326 326 325 325 326 327 328
321 323 326 324 323 326 327 326 326 325 324 330 329 331 330 328 328 328 328 326 324 324 324 325 326 326 326 327 327 328 328 330 326 325 324 326 327 325 325 326 326 325 325 325 325 325 327 328 326
322 323 325 327 329 324 324 327 326 326 329 330 331 331 329 328 328 328 327 326 323 324 325 324 325 325 326 327 326 328 329 329 327 325 326 326 326 326 327 327 326 324 324 325 327 327 328 325 326

GFSSGP_850_thetae_024.txt.gz
Theta_e
327 327 330 337 335 333 338 337 334 327 327 327 326 324 322 322 323 322 332 327 330 327 328 328 327 324 322 321 318 317 314 314 314 315 316 316 322 320 318 320 319 318 321 322 318 312 308 317 311
326 327 333 336 337 339 337 334 333 327 327 326 323 322 322 323 326 329 328 327 325 323 323 324 324 323 323 321 320 318 317 314 315 322 320 321 321 317 319 319 319 323 324 324 322 319 312 312 324
326 330 334 333 333 336 335 332 332 330 327 327 325 324 323 324 324 326 326 326 324 323 322 324 326 325 323 321 320 319 318 316 321 323 324 321 321 324 321 318 319 319 324 329 327 323 321 312 317
328 334 335 330 331 330 332 331 330 326 328 327 325 325 324 323 324 325 325 324 322 322 323 325 326 324 322 320 318 317 316 315 316 320 322 323 323 323 321 320 318 316 324 327 327 327 324 323 315
333 334 329 331 332 331 330 331 331 328 326 325 325 325 324 325 324 325 324 320 320 323 323 323 322 322 322 319 318 318 318 321 320 315 316 320 323 322 321 320 320 322 322 327 325 325 327 326 324
332 329 327 328 329 330 328 331 332 329 327 325 326 324 324 324 324 323 319 321 323 321 322 322 322 321 320 321 320 320 319 322 326 324 323 323 321 317 317 317 319 321 323 323 324 325 326 327 326
329 327 329 330 331 330 330 332 329 329 330 325 327 324 325 324 323 321 320 321 321 321 322 322 322 322 322 322 321 322 320 325 325 325 325 323 321 321 321 320 323 323 323 323 325 324 324 326 326
330 325 328 328 329 329 328 327 328 330 330 328 326 326 324 324 323 323 323 321 322 322 322 322 322 323 322 322 322 320 322 326 326 326 326 324 323 322 320 317 318 320 323 323 324 324 323 324 327
331 328 330 329 328 329 329 325 327 327 328 327 326 326 327 326 324 324 324 323 322 322 322 323 323 323 322 322 320 318 324 327 326 326 325 324 325 322 320 318 319 322 323 322 320 324 322 324 326
329 327 331 330 328 327 327 326 326 325 325 326 325 324 325 326 325 324 323 322 323 322 323 323 323 322 322 322 317 322 326 327 326 325 325 326 324 322 319 318 320 322 323 325 325 323 324 324 326
329 329 330 329 328 328 328 327 328 325 323 326 325 325 326 326 325 324 322 322 323 323 323 323 322 322 322 316 317 319 321 324 325 326 326 324 323 322 321 322 322 322 321 322 322 324 324 324 325
328 329 330 329 329 328 326 328 327 327 326 326 326 325 325 326 325 323 322 323 323 323 323 323 323 323 322 314 319 323 325 324 325 326 326 323 323 323 322 322 322 321 322 322 321 322 323 324 323
328 328 330 329 328 328 328 326 326 328 330 325 325 325 325 325 324 323 323 323 323 324 324 324 324 323 320 314 322 324 324 326 326 325 324 324 324 325 324 323 322 320 320 321 322 321 323 324 316
326 328 329 329 329 328 327 327 326 329 329 325 325 324 324 324 323 323 323 323 324 324 324 324 324 322 317 318 323 326 325 326 327 326 325 324 325 327 325 324 322 322 321 321 322 322 323 321 322
321 321 322 325 326 325 327 325 326 328 328 326 324 324 324 323 323 324 323 323 324 324 324 324 324 321 314 321 325 326 327 328 328 326 326 326 324 326 325 324 322 323 322 322 322 322 323 321 323
320 319 321 322 323 325 325 326 325 327 326 326 326 325 323 323 323 323 324 323 324 324 325 325 323 318 315 322 325 328 328 327 326 326 325 326 324 325 325 323 322 324 322 322 321 322 324 323 323
318 320 321 322 322 324 324 326 324 327 326 326 326 326 327 325 323 323 324 323 324 325 325 325 321 314 317 323 326 327 328 328 326 325 326 327 325 324 323 322 323 323 322 321 321 322 324 324 324
321 319 322 323 324 324 324 324 324 327 325 325 326 327 326 325 324 323 324 324 324 325 326 323 319 315 321 324 327 325 326 327 326 326 326 326 326 324 322 323 323 323 322 320 322 324 325 325 324
321 321 321 323 323 325 325 325 326 326 324 324 326 326 326 327 326 324 324 325 325 326 325 323 316 317 325 327 328 327 328 327 327 326 326 326 326 324 321 323 324 323 322 321 322 325 324 324 325
318 321 322 322 323 323 324 326 326 327 326 327 327 328 326 326 325 325 325 325 325 325 326 322 316 321 326 327 326 326 327 327 326 325 325 326 325 322 324 324 324 323 322 322 324 324 325 325 323
318 320 322 322 322 322 324 326 327 327 327 328 329 328 325 327 326 325 325 325 326 326 326 323 318 324 327 330 328 325 326 327 327 326 326 325 324 324 324 323 323 322 321 322 324 325 325 325 324
321 321 322 324 323 324 324 327 324 325 325 324 325 326 326 326 325 325 325 326 326 326 325 323 321 325 329 330 330 326 328 329 326 326 325 326 325 325 321 323 324 324 323 321 323 325 321 323 326
321 321 322 324 324 323 324 324 323 323 325 324 322 326 326 326 325 325 325 326 326 326 325 323 322 326 329 330 329 327 328 326 326 326 324 325 324 324 326 324 323 324 324 320 321 324 323 323 325
321 322 322 323 323 325 324 324 326 324 325 325 325 324 326 325 325 325 326 326 327 327 326 324 323 328 330 329 328 327 325 325 326 326 327 327 326 326 325 324 323 323 324 322 323 324 323 324 327
320 320 322 323 325 326 324 326 327 324 324 323 325 326 326 326 326 326 326 327 328 327 325 323 325 328 329 329 326 324 325 325 326 327 327 326 326 326 326 325 323 323 325 323 324 324 324 326 326
317 319 322 324 326 326 324 326 326 323 324 325 327 327 327 326 326 326 327 327 328 326 324 324 327 328 328 328 325 323 324 325 324 325 328 326 327 327 326 325 324 323 325 325 325 326 325 326 325
316 316 317 322 325 324 324 325 326 323 327 326 326 327 327 327 327 326 327 328 328 326 323 323 329 328 328 328 325 326 327 325 326 325 326 327 327 327 326 326 326 324 324 324 325 324 325 325 323
316 319 320 319 324 326 326 327 327 323 328 328 327 326 327 327 327 327 327 328 327 326 323 324 328 327 328 327 326 328 327 327 326 324 326 326 326 327 326 326 326 326 325 324 324 325 325 323 323
315 316 318 320 321 324 325 325 321 322 322 329 326 326 328 327 327 327 328 328 327 325 323 324 326 327 327 327 327 328 328 327 325 326 326 326 325 326 326 326 326 326 326 325 325 325 324 323 325
316 316 317 322 323 322 323 324 323 322 324 327 327 327 328 328 327 327 327 327 325 324 324 323 326 326 326 326 326 328 329 327 325 327 325 326 326 326 326 325 325 325 325 325 325 324 326 327 327

GFSSGP_850_thetae_027.txt.gz
Theta_e
325 325 327 336 334 331 337 336 332 334 327 326 325 323 322 322 321 321 330 331 332 334 335 329 327 326 324 322 319 319 317 316 316 315 315 315 316 319 321 317 319 319 319 320 321 317 310 306 308
326 324 331 336 336 337 335 333 333 328 327 325 323 322 322 323 327 329 330 327 329 327 328 328 326 325 324 323 321 320 318 318 316 315 321 323 320 322 318 316 318 318 321 324 324 322 318 311 307
325 326 333 334 332 335 334 332 331 331 330 324 323 323 322 323 325 326 326 327 326 323 321 322 325 325 324 322 321 319 318 316 315 320 326 327 327 326 320 320 318 317 318 320 327 326 323 321 312
325 331 334 331 332 330 332 329 330 328 331 325 324 324 324 324 324 324 324 326 324 321 320 323 325 325 324 321 319 318 317 316 316 323 322 323 322 323 321 322 321 321 327 326 326 327 326 323 322
332 333 330 330 330 329 328 329 329 328 326 323 325 324 324 324 324 324 324 323 319 317 318 322 324 324 322 321 320 319 319 319 319 323 320 318 320 319 321 321 321 320 323 326 327 326 326 327 325
331 327 327 328 328 328 327 330 328 327 328 325 325 324 324 325 324 324 323 320 318 319 320 322 322 322 322 320 321 321 320 320 322 324 324 323 321 322 324 321 320 324 325 324 325 325 325 325 326
328 325 329 328 331 329 328 330 327 326 327 324 325 322 325 325 324 324 322 319 320 322 321 321 322 322 321 321 322 321 322 320 324 325 324 325 324 323 322 321 320 323 324 324 324 324 323 325 325
329 325 329 327 329 328 328 327 329 328 327 327 325 325 325 326 324 324 320 321 321 321 322 322 322 322 322 322 322 322 318 323 326 325 325 325 325 323 323 321 318 318 324 327 324 323 323 323 324
330 327 328 328 328 328 327 326 329 328 326 326 326 326 326 326 324 322 321 322 321 322 322 322 322 322 322 322 322 317 318 322 326 326 326 325 324 325 322 320 317 317 320 323 323 323 324 322 323
328 326 328 328 326 326 327 326 327 325 326 325 326 326 325 326 324 322 323 323 322 322 323 322 322 322 323 322 321 318 321 323 326 326 325 325 326 323 322 320 320 320 323 323 324 326 323 325 323
327 328 327 328 330 329 327 327 328 326 322 326 326 326 325 325 324 324 325 324 321 322 322 322 322 322 322 323 318 320 323 322 321 323 324 325 326 324 323 321 321 322 322 321 322 324 324 322 324
328 327 329 328 329 329 327 328 327 327 327 328 327 326 325 325 325 325 325 324 321 322 322 322 322 322 322 322 317 319 322 324 326 325 324 325 324 323 323 323 323 321 321 321 321 321 322 324 323
327 326 327 328 329 329 329 327 327 327 328 328 326 326 325 325 325 325 325 324 321 323 322 322 322 322 323 320 317 321 324 324 325 327 326 324 323 324 325 324 323 321 321 320 321 321 321 323 323
322 324 325 327 328 328 328 327 327 326 326 327 326 326 325 325 325 325 325 323 322 322 323 323 323 324 322 316 317 322 326 326 326 328 327 326 325 324 324 326 324 322 322 321 321 322 320 322 323
318 317 318 319 322 324 326 324 325 326 326 326 325 325 325 325 325 324 324 322 323 322 323 323 324 324 321 315 319 324 327 327 325 326 326 326 326 326 324 325 325 322 323 323 321 322 321 322 322
317 317 319 319 321 322 322 323 324 326 326 326 325 325 324 324 324 324 324 323 322 323 323 324 324 323 317 315 322 325 326 327 327 325 325 325 326 326 324 325 324 323 323 323 322 321 322 323 321
315 316 316 317 319 320 322 323 323 325 325 325 325 325 324 324 324 324 324 323 322 323 324 324 324 321 315 319 323 326 325 325 326 326 326 325 326 325 325 324 323 322 323 322 322 321 323 323 322
316 316 317 318 320 319 321 322 323 324 324 324 325 325 325 324 325 324 323 323 323 324 324 325 323 318 317 323 326 325 325 326 327 327 326 326 325 326 324 324 322 322 323 321 321 321 323 324 323
316 318 319 320 321 321 321 322 322 323 323 324 325 324 324 325 325 324 322 322 324 324 325 324 322 316 321 325 326 324 323 326 327 327 325 325 325 326 325 322 322 323 323 320 321 322 324 325 324
319 318 319 320 321 321 320 321 321 322 322 325 327 327 324 324 326 325 322 323 324 324 325 324 321 316 324 325 323 323 323 326 327 326 326 325 324 324 322 323 324 324 322 321 321 323 325 324 324
321 319 319 319 321 320 320 321 321 322 324 326 327 328 328 328 326 326 323 324 324 325 325 324 319 319 324 327 327 326 325 328 328 326 326 325 324 322 324 324 324 323 322 322 322 324 324 324 325
317 317 318 319 320 322 321 323 322 322 323 323 325 326 327 325 325 325 324 324 325 325 325 323 319 322 324 326 327 326 327 328 326 325 324 325 325 324 323 323 323 323 321 322 323 324 324 324 324
317 318 319 319 320 321 323 322 321 321 323 322 320 324 325 325 325 325 325 325 325 325 325 323 321 322 325 327 327 326 325 325 324 326 326 325 324 324 323 323 323 323 323 321 323 324 323 323 323
317 317 318 318 319 322 322 322 322 322 323 322 323 323 324 324 325 325 325 325 326 326 325 323 321 323 327 326 327 324 324 325 326 326 327 327 326 325 324 324 323 324 324 321 322 324 322 323 325
315 313 316 319 321 324 322 322 324 322 322 322 322 323 324 325 325 325 325 326 326 326 325 323 321 324 326 327 326 324 324 325 324 326 327 326 325 326 325 324 323 323 323 321 321 323 324 323 324
314 315 319 322 323 324 322 324 324 322 322 324 324 325 325 325 325 325 325 326 326 327 325 323 323 326 325 327 325 324 324 324 325 325 327 326 326 326 326 324 323 323 324 322 323 323 323 324 325
314 317 317 319 321 322 322 322 323 323 325 324 324 325 325 325 325 325 326 326 327 326 324 322 326 327 327 327 325 327 327 327 326 325 326 327 327 326 326 325 323 323 325 325 325 325 324 326 326
313 314 317 315 321 325 323 324 325 324 326 325 325 324 325 325 325 326 326 326 327 326 324 323 327 327 327 327 325 327 328 326 325 324 325 325 326 326 326 326 325 324 324 324 324 325 325 325 325
313 314 313 315 317 321 322 323 321 322 325 325 323 325 326 326 326 326 326 327 327 326 323 323 327 327 327 326 326 327 328 325 326 325 326 325 326 326 326 326 325 325 324 324 324 324 324 324 322
316 315 314 317 318 318 320 322 321 320 323 324 324 325 326 327 327 326 326 327 327 325 323 323 326 326 325 326 326 327 328 325 327 326 325 326 326 326 325 325 325 326 325 325 324 325 324 322 323

GFSSGP_850_thetae_030.txt.gz
Theta_e
322 323 326 334 333 330 336 335 332 334 330 325 323 322 319 322 326 323 327 329 328 331 332 333 324 321 324 322 321 319 319 318 317 316 314 312 314 315 313 319 316 316 318 318 318 320 316 309 306
324 325 332 336 335 336 334 332 334 331 330 328 323 323 321 322 324 327 328 328 328 329 330 329 326 325 323 322 322 321 319 317 317 316 315 317 321 320 319 319 314 315 317 317 323 323 321 318 310
323 326 332 332 333 335 332 331 331 330 330 326 322 323 323 323 324 325 326 326 326 326 327 325 323 323 323 323 322 320 318 316 315 315 316 325 328 327 327 321 319 317 316 326 327 325 325 323 320
323 329 333 333 334 331 331 330 328 327 330 325 324 323 324 324 324 324 325 325 324 322 322 322 323 323 323 323 321 319 318 318 318 316 322 328 326 326 322 322 319 322 320 327 327 327 327 327 324
327 333 331 331 331 329 326 329 328 326 326 324 323 323 324 325 324 325 325 324 322 319 319 320 323 324 324 323 321 320 320 320 320 317 321 322 321 319 322 322 321 320 322 325 326 327 325 326 326
331 327 327 330 328 327 326 330 328 326 326 324 323 323 324 325 325 325 324 323 320 319 318 320 323 324 324 322 320 321 321 320 320 319 322 323 323 322 320 323 326 324 322 323 326 326 325 325 326
327 324 328 327 329 328 327 328 326 325 326 325 324 323 325 325 325 324 324 322 319 320 319 320 322 324 323 321 321 322 321 321 319 322 324 324 323 323 322 321 321 320 321 322 323 323 324 323 326
328 324 328 327 329 327 327 327 327 327 326 326 324 323 324 326 325 324 324 321 319 320 320 321 321 323 322 321 322 322 321 319 317 324 325 325 325 324 323 324 321 320 319 323 324 325 323 324 324
328 325 326 327 327 326 326 326 327 328 328 327 326 326 326 326 326 324 324 321 320 321 321 322 322 322 322 322 322 322 321 316 318 323 325 325 325 324 325 322 320 317 316 316 319 320 319 322 323
327 325 325 324 324 325 325 327 327 327 327 327 325 326 326 325 325 325 324 322 322 322 321 322 322 322 321 322 322 322 318 317 319 321 324 325 325 325 323 322 319 318 318 320 322 324 325 323 323
326 327 326 325 326 327 327 328 328 326 324 327 327 329 328 326 325 325 324 324 325 323 321 321 322 322 322 322 322 322 317 321 323 323 324 325 325 326 325 323 321 321 321 322 322 322 324 326 323
326 326 327 326 326 327 326 328 328 328 327 328 329 329 327 325 325 325 325 324 324 323 322 322 322 322 322 322 322 320 318 323 324 325 325 325 325 325 323 323 323 323 321 321 320 321 321 323 323
325 325 327 327 327 327 327 327 327 328 329 329 328 326 326 327 325 325 325 324 325 324 323 322 322 322 322 322 323 317 321 325 325 325 327 327 325 324 323 324 324 324 322 321 320 320 321 321 322
322 325 325 326 326 325 326 325 326 327 328 327 327 327 327 326 325 325 325 325 325 324 323 322 322 322 322 323 320 318 323 326 326 326 327 327 326 325 324 323 324 325 323 322 322 321 321 321 322
317 316 315 317 318 319 321 321 322 324 325 325 325 326 326 326 325 325 325 324 325 324 323 322 322 322 322 323 317 321 325 327 327 326 326 326 325 326 326 325 324 325 324 322 323 322 321 321 321
316 315 317 316 318 318 320 319 320 322 323 324 325 325 326 326 326 325 325 324 324 324 323 322 322 323 324 320 318 323 326 326 327 327 325 325 325 325 326 325 324 325 323 323 323 322 321 321 322
314 315 314 314 316 317 318 318 319 322 323 323 323 325 325 326 325 326 325 324 324 324 322 322 323 324 323 317 321 324 325 324 326 326 327 326 325 326 326 326 324 324 323 323 323 322 321 322 323
314 314 314 314 317 315 316 317 318 320 321 321 323 324 325 325 326 325 324 324 324 323 322 323 324 324 319 319 324 325 324 324 326 327 326 325 325 325 325 324 324 323 322 323 322 322 321 323 321
314 314 314 316 318 318 317 318 320 320 321 320 322 323 324 325 326 324 324 323 323 322 322 324 324 322 318 323 325 323 322 323 326 326 326 325 325 325 325 324 323 322 322 323 321 321 322 323 323
316 315 316 317 318 319 318 319 319 319 319 321 322 323 325 325 326 324 324 323 321 322 324 324 323 319 319 324 324 324 323 325 327 328 326 326 324 324 324 322 322 323 324 322 320 321 323 324 324
318 318 317 318 318 318 319 318 319 320 320 321 323 324 325 327 326 325 324 321 321 323 324 324 322 318 320 325 325 325 324 326 327 326 325 324 324 321 322 323 324 324 323 321 320 322 325 324 324
318 319 320 320 318 317 318 321 319 320 320 320 322 324 326 326 325 325 324 322 323 324 324 324 321 318 321 325 325 325 325 325 325 324 325 324 325 324 324 323 323 323 322 321 321 323 324 324 324
317 318 320 318 316 317 318 320 320 319 321 321 320 323 324 323 323 324 324 323 324 324 325 323 320 318 322 325 325 325 324 325 326 325 326 327 325 324 322 323 323 323 321 321 322 323 324 324 324
316 316 316 316 316 318 318 320 320 320 321 321 320 323 323 323 324 324 323 324 325 325 324 323 319 319 323 325 325 324 324 324 324 326 327 326 327 324 324 324 323 324 323 321 322 324 324 322 324
314 313 313 315 317 319 318 319 320 320 320 321 321 322 323 324 325 324 323 324 325 325 324 323 318 320 324 326 325 323 324 324 325 324 327 326 325 326 324 324 323 323 323 321 322 323 324 322 323
313 313 314 316 319 322 319 322 321 320 321 323 322 322 323 324 325 324 324 325 325 325 325 322 317 323 325 326 324 324 326 325 325 325 326 326 326 326 326 324 323 323 323 321 320 322 324 322 324
313 314 313 316 319 320 320 320 320 320 320 321 321 323 323 324 325 325 325 325 325 326 325 322 321 326 326 327 325 327 327 325 324 325 326 326 326 326 325 324 323 324 323 322 322 323 323 324 324
313 313 314 314 320 323 321 322 322 322 322 324 323 322 323 324 325 325 325 325 326 326 324 321 323 325 327 326 325 327 327 325 325 325 324 326 326 326 326 324 323 324 325 324 324 324 323 325 325
310 314 313 313 315 319 321 321 319 321 321 323 322 323 324 325 325 325 325 326 326 326 323 321 325 326 326 326 325 327 326 326 325 325 325 326 326 326 326 326 324 324 324 325 325 325 325 324 325
313 311 312 316 315 315 318 320 318 320 320 321 322 324 324 325 325 325 325 326 327 325 323 322 325 326 326 326 326 328 325 326 327 325 326 325 325 325 326 326 325 325 324 324 324 324 324 324 322

GFSSGP_850_thetae_033.txt.gz
Theta_e
318 322 325 330 334 336 339 340 336 338 335 326 324 327 328 328 333 328 325 327 328 328 326 328 328 324 322 321 320 320 320 319 316 314 313 313 312 316 317 316 316 316 314 316 317 319 320 315 309
322 325 332 336 338 341 339 337 338 335 332 329 323 322 322 326 323 324 326 327 325 327 326 328 326 324 322 320 320 320 320 317 315 314 313 313 314 322 324 323 319 316 313 314 315 320 322 322 317
321 328 333 337 341 341 338 336 335 333 330 329 323 322 323 325 324 324 325 327 325 326 325 326 324 322 321 320 321 320 318 317 316 316 314 315 322 326 326 327 324 320 320 318 322 327 324 325 324
324 329 332 336 338 338 336 335 333 332 331 326 323 326 324 325 324 324 325 326 324 323 322 323 321 320 321 322 322 321 319 318 318 318 315 317 329 328 326 326 328 321 320 327 327 327 327 327 327
326 333 332 338 337 335 333 333 331 332 329 328 323 327 326 326 325 325 325 325 324 321 320 320 320 321 322 323 323 321 320 320 320 319 316 320 326 323 322 322 323 323 324 324 326 328 324 325 327
330 330 334 333 333 332 331 330 330 330 328 326 324 325 326 326 325 324 325 324 323 320 320 319 320 322 323 324 324 322 320 321 321 321 319 323 323 323 322 321 323 325 327 327 326 321 324 324 324
330 332 329 331 330 330 330 329 329 329 328 328 325 326 326 326 325 325 324 324 322 320 319 319 320 322 324 325 324 321 321 321 321 321 322 323 323 322 322 322 321 320 323 324 325 324 324 324 325
329 329 328 329 328 328 330 328 326 329 329 329 324 327 329 326 326 326 324 324 322 320 320 320 320 322 323 324 323 321 322 322 322 319 321 324 324 324 324 323 322 322 320 320 320 323 325 325 323
328 329 327 326 327 327 328 329 326 327 328 327 327 328 328 327 327 326 325 324 323 320 320 321 321 322 323 324 322 321 322 322 321 317 319 323 325 325 325 324 323 321 319 317 316 318 323 325 324
329 329 327 326 326 327 327 328 328 328 328 329 328 327 328 328 328 326 325 325 324 323 321 321 321 322 323 324 322 322 322 322 318 317 320 322 325 325 325 324 322 321 317 316 317 321 324 323 327
328 330 328 327 326 326 327 327 328 328 329 328 329 329 329 328 327 326 326 325 325 325 322 322 321 322 323 323 322 322 322 322 317 320 324 323 324 325 324 325 323 320 319 321 323 324 322 325 326
328 328 328 328 327 326 327 327 328 328 328 328 328 328 329 328 327 327 326 326 325 325 323 322 322 322 323 323 322 322 322 319 318 324 325 325 324 325 325 325 323 322 322 321 321 320 321 320 323
328 327 328 328 328 328 327 328 328 327 327 327 328 328 327 328 328 329 326 325 325 325 323 323 322 322 323 322 322 322 322 317 322 326 325 326 326 326 325 325 323 323 323 322 321 320 320 321 321
325 325 325 326 327 327 327 326 325 324 324 324 324 325 325 325 328 327 326 326 325 325 324 323 322 322 323 322 322 322 320 318 325 326 326 326 327 327 326 325 324 324 325 325 322 322 321 322 322
320 322 323 322 323 323 321 321 321 320 321 322 323 323 324 324 326 326 326 326 325 325 324 323 323 322 322 322 322 323 317 322 326 327 327 326 326 326 326 326 326 324 325 326 323 322 322 321 321
318 319 320 320 319 319 319 320 321 320 321 322 322 324 324 324 325 326 326 326 325 325 324 323 323 322 322 322 323 321 318 324 326 326 327 326 326 325 325 326 326 325 325 325 323 323 322 322 322
319 321 320 320 318 319 320 321 321 320 320 321 322 322 323 323 324 325 325 325 326 324 323 323 322 322 322 322 323 317 322 325 324 326 327 327 327 326 326 326 327 325 325 324 323 323 322 322 321
319 318 319 319 319 318 319 320 320 320 321 321 322 323 324 324 323 324 325 325 324 323 323 323 322 322 322 324 319 319 325 324 324 325 327 327 326 325 325 325 325 325 324 323 322 323 322 321 322
321 320 321 320 318 318 321 322 322 321 321 322 322 323 323 323 323 325 325 324 323 322 323 322 322 322 324 323 318 324 325 323 323 326 326 327 326 325 326 325 324 325 323 322 323 321 322 322 323
316 317 318 318 318 319 321 321 322 322 321 322 322 322 323 325 324 325 325 323 322 321 322 322 323 324 323 319 323 324 324 323 326 327 327 326 325 324 325 325 323 322 322 323 322 321 322 323 322
316 317 317 318 321 321 321 322 322 322 322 321 322 324 324 325 324 324 324 323 321 321 322 323 324 324 320 322 325 326 324 325 326 326 325 325 325 322 322 322 323 324 324 323 321 321 322 324 324
318 317 317 318 319 322 321 324 323 321 321 324 325 326 325 323 323 324 324 323 321 321 323 324 324 321 320 325 326 324 325 325 325 324 326 324 324 323 324 323 324 324 323 322 320 322 325 325 324
317 318 318 318 320 321 321 321 322 323 321 322 324 326 325 323 323 323 324 323 321 323 324 324 322 320 322 326 325 324 324 325 325 326 326 327 326 324 324 323 323 323 322 321 321 323 324 324 323
317 319 320 320 321 322 321 320 323 321 321 323 325 326 323 324 324 324 323 322 323 324 324 323 321 320 323 324 324 324 324 324 325 324 327 326 326 325 323 323 323 323 322 321 322 324 324 323 323
318 319 321 321 322 323 321 321 321 322 323 325 325 326 324 324 324 324 323 325 324 324 324 323 320 319 323 324 324 323 324 324 325 325 326 326 326 325 324 324 323 324 324 321 322 324 324 322 323
318 320 321 324 324 321 321 320 320 323 322 322 324 325 324 325 325 324 325 325 324 324 324 322 319 321 324 325 323 324 326 326 325 325 326 326 326 326 325 324 323 324 323 321 323 323 324 323 325
317 319 318 319 322 320 322 323 324 325 326 326 324 324 326 327 325 325 325 324 325 325 324 322 319 323 323 326 324 326 327 325 324 325 326 326 326 326 325 324 323 323 322 320 321 322 323 323 324
317 318 317 318 319 320 323 325 323 327 327 328 328 327 326 326 326 325 325 324 325 325 324 320 323 325 325 326 325 327 326 325 325 324 325 326 326 326 324 324 323 324 322 322 322 323 323 324 324
315 317 317 318 319 318 318 321 328 328 329 329 329 328 326 326 326 325 325 325 325 325 323 320 324 325 326 326 325 327 325 326 325 325 325 326 326 326 326 324 323 325 325 324 324 324 323 325 325
315 317 318 317 319 318 320 320 323 327 326 328 329 327 326 327 326 326 326 325 325 325 323 320 324 325 326 326 325 327 325 327 326 326 325 325 325 326 326 325 324 324 324 324 325 325 325 325 324

GFSSGP_850_thetae_036.txt.gz
Theta_e
314 322 327 331 334 329 334 339 339 339 339 332 331 331 331 331 332 334 326 327 328 325 323 324 327 327 322 322 319 317 318 319 316 314 313 312 312 312 315 316 315 315 317 315 317 317 318 321 315
321 325 330 334 331 334 337 340 339 337 335 333 332 331 329 331 329 328 332 326 325 325 322 323 323 324 322 321 318 318 319 317 316 315 314 313 313 314 320 323 323 318 318 313 315 317 320 322 323
323 329 333 335 339 340 339 338 337 335 333 332 331 328 329 330 328 329 332 326 325 324 322 320 322 322 321 319 319 320 319 318 318 317 316 314 314 319 324 325 326 325 325 320 317 314 327 325 326
325 330 332 336 336 338 340 337 336 335 333 331 330 332 328 328 329 329 329 326 325 324 323 321 324 321 320 320 320 320 320 319 319 320 318 315 317 325 329 327 326 328 328 323 328 324 324 327 328
328 331 332 332 332 334 338 337 335 335 333 331 329 331 330 329 326 325 325 326 325 329 325 321 321 321 320 321 321 321 321 320 321 321 320 316 321 331 329 325 325 324 325 326 327 325 327 328 324
330 330 332 332 331 333 334 332 332 333 333 330 328 329 330 327 326 328 331 334 332 332 323 326 319 320 320 321 322 322 322 320 321 321 321 317 322 325 325 323 324 323 324 326 329 326 323 324 323
330 331 329 330 331 332 332 331 332 333 332 331 330 330 329 330 328 326 330 333 333 333 325 320 318 320 321 322 323 323 323 321 321 321 322 320 323 322 322 322 322 322 324 324 328 329 328 327 326
328 330 330 330 331 330 330 331 332 332 332 330 328 332 331 331 329 329 332 332 333 334 332 324 320 319 321 323 324 325 324 321 322 322 322 320 322 323 324 324 323 323 321 322 320 321 323 323 325
328 330 330 330 330 330 330 331 330 330 330 330 330 330 330 329 329 331 332 332 333 333 334 333 334 334 327 332 331 325 325 321 322 322 324 319 327 331 331 330 327 324 322 321 319 318 319 323 325
330 331 330 330 330 330 330 330 330 330 330 329 329 330 330 331 331 331 330 331 332 332 333 334 335 336 337 335 337 334 335 332 334 335 332 332 332 332 331 329 327 324 322 321 317 316 317 320 325
330 332 331 331 330 329 329 329 329 329 331 329 329 329 329 330 330 332 331 330 330 332 333 333 330 332 331 336 337 337 334 334 333 329 323 332 331 332 332 331 331 331 328 326 327 327 326 326 326
331 330 330 330 330 330 331 330 330 330 330 329 328 328 328 328 329 330 331 331 330 330 332 334 334 322 328 336 336 334 330 330 330 329 325 326 332 333 332 332 330 328 329 328 326 326 327 327 327
330 330 330 330 330 330 330 330 330 330 328 328 327 326 326 326 326 327 329 331 331 329 331 334 335 322 323 325 333 328 326 329 328 329 329 326 331 332 332 332 331 330 329 328 327 326 327 327 327
326 327 328 329 330 330 330 330 329 329 327 326 325 324 324 324 323 324 326 329 331 328 331 333 334 324 322 323 324 323 322 327 327 329 330 327 329 331 332 330 329 330 329 329 328 327 327 327 327
324 327 327 328 328 329 329 330 329 326 324 324 323 324 324 322 323 324 325 328 332 331 330 330 327 324 323 323 323 323 326 323 329 329 329 326 328 330 329 328 328 327 328 327 326 326 327 328 328
324 326 327 327 327 326 326 328 327 325 325 324 324 324 323 322 324 325 327 329 331 330 327 326 327 324 323 323 323 323 328 326 329 331 332 331 329 328 328 327 326 327 329 327 326 326 326 326 327
324 326 327 327 326 325 324 326 327 324 324 324 324 325 323 323 325 326 328 330 330 329 326 325 324 325 323 323 323 322 325 322 330 331 332 332 330 329 328 328 328 328 330 328 329 327 325 327 326
326 326 326 328 327 323 324 325 326 324 324 325 325 325 324 324 325 327 328 329 328 325 324 323 324 324 323 323 322 327 330 330 331 331 331 332 330 329 328 327 329 330 328 325 326 326 326 327 325
325 327 328 327 326 326 326 326 326 325 326 327 326 325 324 326 326 328 328 324 325 323 324 325 324 326 325 324 329 330 330 331 331 331 332 331 329 330 331 329 329 330 326 325 327 323 324 326 324
323 325 327 327 326 327 325 326 328 328 328 327 325 325 326 327 329 329 329 325 324 325 326 326 330 323 323 330 330 331 332 330 331 332 333 330 329 329 326 326 330 326 326 325 323 325 326 325 323
321 323 325 325 325 325 324 325 327 328 327 326 325 324 323 327 329 331 330 329 329 329 327 327 328 322 324 331 330 323 327 328 331 332 332 332 328 328 325 326 327 327 324 324 325 325 326 324 324
321 321 320 321 322 324 324 329 328 328 328 328 326 324 325 329 330 332 331 331 330 331 331 332 328 323 324 321 330 332 330 330 332 331 331 330 328 329 328 327 325 325 325 324 326 326 325 325 327
319 319 320 320 322 323 323 325 328 328 328 328 327 325 327 330 331 332 331 331 331 331 332 332 325 327 326 321 331 331 329 332 331 331 330 330 329 328 328 325 325 324 325 325 327 327 326 326 325
318 319 320 321 322 325 324 326 328 329 329 329 328 324 329 331 331 331 331 330 331 331 331 331 331 332 325 329 331 326 332 331 331 332 331 329 330 328 328 328 324 325 326 327 327 326 325 325 325
318 320 323 325 327 327 326 328 329 328 327 326 326 327 331 331 331 331 330 331 331 331 331 332 332 332 332 332 331 329 330 329 331 331 331 329 328 329 329 327 325 325 326 327 327 325 326 324 326
319 322 322 325 329 329 327 328 329 326 326 325 324 324 330 331 331 331 330 331 330 330 331 331 332 331 331 331 331 328 328 331 331 330 331 328 328 327 327 327 326 326 327 327 327 326 325 326 325
319 323 322 327 328 326 330 328 325 325 326 325 327 324 329 331 331 330 331 330 330 331 332 332 331 330 331 331 330 330 332 331 330 329 328 328 328 329 329 328 328 328 327 327 326 327 327 328 325
320 321 324 324 328 328 326 326 326 326 327 326 328 329 330 332 331 330 330 330 330 331 332 331 329 330 330 331 331 332 332 332 329 331 331 329 328 330 330 330 329 328 328 327 326 327 326 323 327
319 322 322 324 324 327 328 325 324 327 326 328 331 331 333 332 330 330 330 330 331 331 331 329 329 330 331 330 332 333 332 331 330 330 331 329 329 331 330 330 330 329 328 328 326 327 328 328 327
319 320 322 323 324 324 325 323 326 328 330 330 331 331 332 331 330 330 329 330 330 331 330 328 328 329 330 330 332 333 332 331 330 331 331 330 330 330 330 330 330 330 330 327 328 328 328 329 329

GFSSGP_850_thetae_042.txt.gz
Theta_e
312 314 328 333 335 330 333 334 335 340 338 336 334 333 334 333 333 337 337 336 334 328 324 322 320 323 323 321 318 316 316 317 316 316 316 314 313 313 313 314 315 314 313 314 316 313 313 315 316
313 326 330 332 334 334 332 332 339 339 339 336 334 335 334 333 332 335 337 335 334 329 324 322 320 321 322 319 318 316 318 318 319 319 319 318 315 314 315 318 321 322 323 319 316 320 315 314 315
321 327 331 331 335 334 333 337 338 337 338 334 334 334 333 332 332 335 337 336 334 331 324 322 319 320 321 319 318 317 319 319 320 320 320 320 318 315 317 322 325 325 326 325 321 325 322 322 319
327 327 330 336 337 335 335 339 339 338 336 335 334 333 333 332 332 333 336 336 334 336 328 322 319 319 320 319 318 318 319 320 320 320 321 321 321 317 318 325 329 328 326 327 328 328 326 325 324
328 329 331 331 332 333 332 334 337 338 336 335 334 333 333 332 332 332 335 335 334 334 336 327 320 319 320 320 319 319 320 320 320 320 321 321 321 320 318 323 329 332 329 327 327 330 329 329 328
328 329 331 334 333 332 333 333 335 336 335 334 334 333 332 332 332 332 334 336 335 334 334 335 324 320 320 321 320 319 320 321 321 321 320 321 322 322 318 320 322 328 327 325 324 323 327 329 330
329 329 331 332 333 333 333 333 333 333 332 333 333 333 332 333 332 333 333 334 336 334 334 335 335 322 321 321 321 320 320 321 322 322 321 321 322 322 321 320 322 322 322 321 321 322 328 326 330
328 329 330 332 334 333 332 331 331 332 332 334 333 333 333 334 334 333 333 333 335 336 335 335 335 335 323 321 320 320 321 322 322 323 323 321 321 322 323 329 331 332 328 326 324 321 320 320 321
327 328 330 331 332 332 332 332 331 331 332 333 331 331 331 331 332 332 332 332 333 334 336 336 336 337 335 322 322 321 321 322 322 323 323 323 322 325 327 333 334 334 332 331 328 323 321 320 319
327 328 329 330 331 333 332 332 332 332 333 332 332 332 331 331 331 332 332 331 331 331 334 336 336 336 337 337 324 324 322 322 322 323 324 323 326 334 334 333 333 334 332 330 330 327 324 327 318
329 330 329 330 332 332 332 332 332 332 333 332 332 331 332 332 331 330 330 330 329 330 330 334 336 336 336 338 338 337 335 326 323 323 325 328 336 336 335 335 334 332 331 331 331 332 328 328 327
331 331 330 332 332 332 333 332 333 333 332 333 333 332 331 331 331 331 330 329 328 328 328 327 335 336 335 337 340 339 339 338 334 330 333 337 335 330 330 333 334 333 332 331 330 329 330 329 329
328 328 329 331 332 332 332 333 333 333 332 332 332 332 332 332 331 330 329 328 328 328 327 327 333 336 335 336 339 339 339 342 340 338 337 335 331 334 335 335 334 333 332 331 330 330 329 329 328
328 328 328 329 330 330 331 331 331 332 332 332 332 332 332 332 331 330 328 328 328 327 326 326 334 336 335 335 337 339 338 341 338 336 334 333 333 332 330 334 334 332 332 332 331 330 328 328 327
326 329 330 330 329 331 330 332 332 330 330 330 331 333 332 332 331 329 328 329 328 326 326 327 335 336 335 334 337 337 340 339 335 333 333 333 333 333 330 332 334 332 332 331 331 330 329 330 328
326 328 330 330 330 330 330 332 332 330 330 330 331 332 332 330 329 328 328 328 328 327 328 329 336 336 335 336 337 337 342 338 333 333 333 333 334 333 331 332 332 333 331 329 329 330 328 328 328
325 329 328 329 329 329 331 332 332 330 330 331 331 329 330 330 328 328 328 329 329 328 330 330 334 336 337 339 340 340 341 336 333 333 333 334 335 335 334 330 333 332 330 329 328 328 327 328 327
325 326 326 328 329 330 330 331 331 330 330 331 330 329 328 329 328 327 329 330 329 331 333 335 335 337 339 340 341 343 339 336 335 334 334 334 335 335 334 332 332 331 330 328 328 327 328 327 327
323 325 325 328 327 328 330 330 331 332 331 331 330 329 329 330 328 328 329 330 331 330 332 334 337 338 337 340 342 339 336 335 335 334 334 334 334 335 330 333 332 329 329 328 327 329 327 327 328
321 323 325 326 325 327 329 331 332 332 332 331 331 330 329 329 330 331 330 332 332 332 331 334 337 337 338 340 338 337 335 335 335 335 334 334 334 331 333 331 331 329 329 327 328 327 327 326 326
321 322 324 324 324 326 328 330 332 331 331 330 330 329 330 328 327 328 330 334 335 334 333 334 336 338 338 337 336 336 335 335 335 334 332 331 332 331 331 331 330 328 327 326 326 326 326 326 325
321 320 321 322 324 327 327 331 333 332 332 333 331 331 329 328 328 330 331 336 337 337 338 338 337 336 335 337 335 334 336 333 333 334 334 333 333 332 331 330 328 328 326 325 325 326 325 326 326
320 320 321 322 324 326 326 328 329 330 331 331 331 330 328 328 330 330 338 338 338 339 339 338 338 334 337 335 336 336 335 332 331 333 333 333 333 331 330 329 328 328 325 325 326 327 326 325 325
320 320 320 322 324 327 328 327 328 329 330 329 330 328 328 329 330 334 338 338 339 339 339 339 337 337 336 336 336 336 335 333 334 334 333 332 332 329 330 329 329 326 326 325 326 326 326 325 326
319 323 324 324 325 327 326 327 329 328 329 329 329 329 329 330 331 337 339 338 338 338 339 338 337 338 337 336 337 333 334 331 333 331 333 333 332 329 329 329 329 326 326 326 327 327 327 327 327
319 323 323 324 324 325 324 327 327 328 329 328 328 329 330 331 336 338 338 338 338 338 338 338 338 338 337 337 335 334 334 334 333 332 332 331 332 331 328 328 327 326 325 327 328 327 326 326 326
320 321 323 324 324 324 326 327 328 329 330 330 331 330 331 336 337 337 337 337 337 338 337 337 338 338 336 334 334 333 334 334 334 333 331 329 328 330 329 329 328 327 328 329 328 326 325 325 325
319 320 322 324 324 327 326 328 330 333 333 331 332 332 331 337 337 337 337 337 337 337 337 337 337 336 334 334 333 334 331 331 331 331 331 329 331 331 330 328 328 328 329 329 327 325 325 325 326
319 319 321 325 324 326 328 328 334 333 330 331 333 330 331 337 337 337 337 337 337 337 337 337 336 334 333 333 333 332 332 332 331 331 332 331 330 330 330 329 328 328 329 328 327 326 328 327 326
320 320 322 325 326 325 327 328 331 330 329 331 331 329 334 336 336 337 336 336 337 337 337 336 334 333 333 332 333 331 333 332 331 332 330 332 330 330 330 329 329 329 328 329 329 329 330 327 327

GFSSGP_850_thetae_045.txt.gz
Theta_e
313 312 325 333 331 327 327 330 331 336 339 336 334 333 332 332 334 338 336 336 334 325 324 322 320 320 320 318 317 317 318 318 319 319 319 318 316 314 314 315 317 317 317 318 316 314 312 311 313
312 324 330 332 332 333 329 327 328 337 338 336 334 334 332 332 336 337 337 335 334 326 324 323 321 320 319 319 318 318 319 320 320 320 321 320 318 315 316 318 321 322 323 324 320 317 323 319 314
313 328 327 329 332 328 330 332 335 337 337 336 335 333 332 333 336 337 335 334 333 330 324 322 321 320 320 319 319 318 319 320 320 321 321 321 321 318 316 318 324 325 325 325 324 322 326 323 321
322 326 327 331 334 334 332 331 336 337 336 336 336 332 332 332 334 336 336 334 333 332 327 322 320 320 320 320 319 318 319 320 320 321 321 321 322 322 319 317 320 327 328 328 328 331 329 328 325
328 328 326 328 330 332 332 333 336 337 336 336 335 332 332 332 333 335 335 335 334 333 333 324 321 320 320 320 319 319 319 320 320 321 321 321 322 322 322 318 318 321 332 331 328 327 329 330 329
326 329 327 329 330 330 330 331 336 336 336 335 333 332 332 331 331 331 333 335 335 334 333 333 327 320 319 320 320 319 319 320 320 320 321 321 321 322 322 321 318 320 324 326 323 323 323 327 328
329 326 326 326 328 329 330 332 332 332 330 332 332 331 331 332 331 332 332 332 334 334 334 334 333 332 323 319 320 320 319 320 320 321 321 321 321 322 322 322 322 329 330 323 321 321 320 324 328
330 326 326 326 328 329 330 331 331 330 330 333 333 332 332 332 333 333 332 333 333 335 334 334 334 333 333 326 319 321 320 319 320 321 322 322 322 322 322 323 325 330 332 331 331 328 322 320 320
331 327 324 325 327 328 330 329 331 331 331 332 332 332 331 332 333 332 332 332 333 335 335 334 334 334 334 333 326 320 320 320 320 321 322 322 322 322 321 326 326 333 331 332 332 329 327 323 320
332 327 326 325 326 328 329 330 331 331 332 332 332 332 331 331 331 331 330 331 331 330 334 335 335 335 335 335 334 323 320 320 320 321 321 322 323 323 326 327 331 332 332 331 331 330 326 326 328
330 329 326 326 327 328 329 331 332 332 331 332 332 331 332 332 331 331 331 330 330 329 329 332 335 335 335 335 335 330 321 321 320 321 321 322 323 325 332 331 335 334 332 332 331 330 330 328 328
328 329 328 327 328 328 329 331 332 331 331 332 332 332 332 332 332 331 332 331 331 330 328 328 330 334 335 336 335 334 334 325 322 322 323 321 325 331 333 333 331 333 333 332 331 330 329 329 328
324 325 327 330 330 329 330 331 331 331 331 331 331 331 332 332 332 332 332 331 331 330 328 328 328 328 334 336 336 335 336 336 336 336 334 329 333 334 335 330 335 334 333 332 331 330 330 329 329
324 326 327 327 327 328 329 329 330 330 331 330 330 329 330 330 331 332 332 331 330 328 328 328 326 326 329 334 336 336 336 337 338 338 338 336 337 335 331 335 336 335 334 332 332 332 331 330 329
320 321 322 324 326 326 327 327 328 329 329 330 330 330 330 330 331 332 331 331 328 328 328 328 326 327 330 335 337 337 338 339 339 341 339 337 334 333 332 331 332 333 334 332 331 332 331 331 328
321 321 322 322 324 327 327 328 328 329 329 329 330 329 329 329 329 330 331 328 327 328 328 328 327 329 334 337 337 341 340 340 341 339 336 333 333 332 332 333 330 332 332 332 333 330 329 330 329
319 321 321 323 324 326 327 327 327 328 329 329 329 329 329 330 329 328 329 327 327 327 330 328 329 329 333 336 337 338 338 341 339 335 333 333 333 333 334 334 332 331 332 333 330 329 329 328 327
320 321 322 322 324 325 326 326 326 327 327 328 328 329 329 330 329 328 328 328 327 328 329 330 332 331 334 336 339 338 338 340 339 334 333 333 333 334 334 334 332 332 332 331 329 328 328 327 327
319 322 322 323 323 324 324 324 324 326 326 326 327 328 330 329 328 328 328 328 328 331 330 331 333 334 336 339 340 340 340 339 336 334 332 333 334 334 334 333 331 332 330 329 328 327 327 329 327
317 317 318 321 323 323 323 324 325 326 325 326 327 329 330 330 329 328 328 327 331 332 331 332 333 336 338 340 341 339 339 340 336 333 333 333 334 334 332 332 332 330 330 328 327 327 327 327 327
316 317 316 317 320 321 321 321 321 323 326 327 329 329 330 330 329 328 328 329 332 331 332 332 334 338 339 340 340 336 335 335 334 334 335 334 334 332 332 330 331 330 328 327 325 326 326 326 326
316 317 318 319 320 320 320 320 321 323 325 326 328 329 330 330 330 329 328 330 333 333 333 333 334 337 337 338 336 336 336 336 336 336 334 333 331 333 332 331 330 327 327 326 325 326 326 326 326
317 318 317 319 318 318 319 320 322 324 325 326 326 327 328 329 328 329 328 333 334 335 334 334 334 336 337 335 335 337 335 334 334 334 334 333 333 332 332 331 330 327 327 325 326 325 325 325 325
315 317 317 317 317 317 318 320 321 321 323 324 324 327 327 326 327 330 334 335 337 336 335 336 334 335 336 337 335 335 334 333 332 333 333 332 332 332 330 329 328 328 326 326 325 325 325 325 325
313 313 314 317 317 318 318 320 322 322 323 324 324 326 326 327 329 336 337 337 337 336 337 335 332 335 336 335 336 335 335 331 334 334 332 331 332 330 328 329 329 328 325 325 325 326 326 326 327
310 313 315 318 319 318 319 321 320 322 324 324 325 325 326 328 334 337 337 337 337 338 337 334 335 337 335 336 336 334 332 327 328 332 332 331 329 330 328 328 327 326 325 325 326 327 326 326 326
309 310 315 315 318 318 319 320 320 320 321 323 323 326 335 334 338 338 338 338 337 338 336 333 336 336 333 334 333 330 330 335 334 332 331 330 327 328 328 327 327 326 326 327 327 326 325 324 324
315 312 315 315 317 320 320 320 320 321 323 323 326 326 337 338 338 338 338 338 338 337 336 336 337 336 335 334 333 331 332 331 331 331 330 329 329 330 329 328 326 327 328 329 328 325 325 325 325
314 311 311 314 316 319 321 320 320 328 328 325 326 328 337 337 337 337 337 338 337 337 337 338 338 336 334 333 331 332 331 330 331 330 332 330 331 329 330 327 327 327 329 328 327 326 325 325 326
315 313 311 314 317 318 319 320 321 324 327 326 326 329 336 337 337 337 337 337 337 336 337 337 337 334 333 331 333 331 331 331 331 331 330 330 330 329 329 328 327 327 327 328 327 327 327 327 327

GFSSGP_850_thetae_048.txt.gz
Theta_e
318 312 318 332 328 325 327 329 330 330 336 337 334 331 330 331 333 334 331 329 329 325 324 323 321 321 320 319 319 319 319 319 319 320 320 320 319 317 316 317 319 319 319 320 321 317 313 311 311
312 319 329 331 331 332 326 326 327 327 337 336 335 333 333 336 335 335 333 333 327 325 325 323 322 320 320 319 319 319 319 319 320 320 321 322 321 319 317 316 320 323 323 323 323 319 318 322 319
313 328 328 329 329 327 327 329 333 336 336 336 335 335 333 336 335 333 334 334 332 326 324 323 322 321 320 319 319 319 319 320 320 321 321 321 322 322 320 317 317 322 325 325 323 323 323 325 323
317 327 327 329 332 331 331 329 331 336 336 336 336 336 333 336 335 335 335 333 333 329 324 324 323 321 320 320 319 319 319 320 320 320 321 321 321 322 322 320 316 316 322 328 328 328 330 329 328
326 327 325 327 329 330 331 331 330 333 335 336 336 333 332 335 336 336 335 333 332 332 330 325 323 322 321 320 320 319 319 319 320 320 321 321 322 322 322 322 320 317 318 330 331 329 329 330 331
326 326 325 327 328 328 328 329 329 334 335 335 332 331 331 335 334 335 334 333 333 331 331 331 329 324 323 321 320 320 319 319 320 320 320 321 321 321 322 322 322 320 324 325 328 324 322 325 328
327 323 325 326 327 327 328 329 329 330 335 332 332 330 331 333 332 331 333 333 333 333 332 332 332 329 324 321 321 320 320 319 319 320 320 321 321 321 321 322 322 322 327 329 325 322 321 320 321
328 324 326 325 327 327 328 328 329 329 329 332 332 330 330 331 331 332 332 332 334 334 334 334 333 333 332 328 320 320 320 319 319 320 320 321 321 321 321 321 323 323 328 329 330 330 330 326 320
329 327 325 325 326 326 327 326 329 330 331 331 332 331 331 332 331 332 332 334 334 335 334 334 334 333 333 333 328 320 320 320 319 319 320 321 321 322 322 322 325 326 330 331 331 330 329 329 324
328 328 328 324 325 324 325 326 327 329 330 331 331 332 332 331 333 332 332 332 332 333 334 334 334 334 334 333 333 329 321 320 320 319 320 320 321 322 323 323 329 330 332 332 330 329 330 326 326
329 331 330 329 327 326 326 326 327 329 330 331 331 332 332 332 331 332 331 331 330 330 330 331 333 334 334 334 334 334 332 326 320 320 320 320 321 322 323 324 330 330 332 334 331 330 329 329 327
328 331 331 332 330 327 326 326 327 328 329 331 331 332 331 331 332 332 331 331 332 331 330 330 329 331 333 335 335 335 334 333 326 320 320 320 320 321 322 325 330 329 331 334 332 330 329 329 328
324 326 328 328 328 328 328 327 327 328 330 331 331 331 330 330 330 329 330 331 331 331 331 330 328 328 328 332 334 335 335 336 330 324 322 322 322 321 322 330 330 333 332 333 333 332 330 329 329
319 322 324 324 324 326 328 328 329 329 329 329 329 329 329 329 330 330 329 329 331 331 331 329 328 328 327 326 329 331 334 336 335 332 326 330 334 328 331 331 332 331 334 334 333 332 331 331 330
316 316 318 319 320 321 325 325 326 327 327 328 328 329 329 329 329 330 330 329 330 331 330 328 328 328 328 327 328 330 333 336 337 337 338 338 336 335 332 333 332 331 334 334 333 332 332 332 331
318 318 319 320 320 321 322 324 326 327 327 327 328 328 328 328 328 329 329 329 329 329 327 328 328 329 327 328 329 333 335 337 337 339 339 340 337 335 333 332 332 332 332 333 333 332 331 330 330
314 320 320 321 321 322 322 324 324 326 327 326 326 327 327 328 328 329 329 329 329 328 327 327 329 329 327 329 330 334 338 338 340 340 342 339 335 333 332 332 333 333 330 331 331 331 331 329 328
316 317 319 320 321 321 322 323 323 324 325 325 326 326 326 327 327 328 328 329 328 328 327 327 329 329 328 330 332 338 340 341 341 341 339 334 333 333 333 333 334 331 330 331 331 331 329 328 327
317 318 319 321 320 321 321 322 323 324 323 323 324 325 326 327 328 327 329 329 327 328 327 328 329 329 330 333 338 341 342 342 338 336 334 334 332 333 333 334 333 333 332 332 330 329 328 328 327
314 315 316 316 317 320 321 321 322 323 323 323 323 324 324 325 326 327 328 328 329 328 328 329 330 330 332 335 338 340 340 340 339 339 338 334 333 332 333 334 333 333 331 330 329 327 326 327 328
313 313 314 315 316 315 316 317 318 319 320 321 322 323 325 327 328 329 329 329 328 328 328 330 332 332 335 339 341 341 340 339 340 338 334 333 333 333 334 333 333 329 330 330 326 325 326 326 326
313 314 314 315 316 316 316 316 317 318 319 319 320 323 325 325 326 327 329 328 328 329 332 332 334 336 340 341 341 339 336 334 334 333 334 334 334 334 333 333 331 330 329 326 325 325 326 326 326
312 314 315 316 315 315 316 315 318 317 319 319 320 323 324 325 326 327 328 328 329 332 333 333 335 338 339 339 338 334 333 334 335 335 335 334 334 333 332 331 331 330 327 327 325 325 325 325 326
310 313 314 314 314 315 315 316 318 317 318 318 321 324 325 324 324 325 327 329 332 334 335 335 335 337 338 337 335 336 337 335 334 333 333 332 332 331 331 331 331 329 327 326 326 325 325 325 325
307 308 311 313 314 317 315 315 317 318 318 318 318 321 322 324 325 326 327 332 335 336 336 335 336 337 336 334 335 335 334 334 333 332 332 332 332 330 330 329 329 328 327 325 325 325 325 326 325
306 306 310 313 316 316 316 316 317 317 318 319 320 321 322 324 324 330 333 335 336 337 336 335 335 335 337 335 335 335 333 333 333 334 333 330 330 328 329 328 328 328 325 325 325 326 326 327 327
309 307 308 310 312 314 316 317 317 317 317 318 318 320 323 325 328 334 336 337 337 337 336 333 333 335 336 335 335 335 334 332 327 330 331 330 329 328 328 327 327 326 325 325 327 326 326 325 325
310 311 308 308 313 315 315 317 318 317 317 318 317 318 325 330 336 338 338 338 337 337 335 333 334 334 335 334 331 325 325 330 330 330 330 329 328 328 328 328 327 326 326 327 327 325 325 324 325
313 311 310 309 311 315 315 316 316 317 317 318 321 321 335 336 337 338 338 337 337 336 333 334 334 332 332 330 327 329 330 330 330 330 330 329 330 329 328 326 327 327 327 327 327 325 324 325 326
311 313 312 308 309 313 315 316 318 315 316 318 320 334 336 337 338 338 338 337 337 334 334 335 334 332 331 331 330 332 331 330 330 330 331 329 329 329 327 327 327 327 327 328 327 326 325 327 326